Weather History for Mineola, TX

Change the Weather History Date:

Friday, January 31, 2014

  Actual Average (KTYR) Record (KTYR)
Temperature  
Mean Temperature 62 °F 48 °F  
Max Temperature 73 °F 57 °F 87 °F (1911)
Min Temperature 51 °F 38 °F 13 °F (1966)
Degree Days  
Heating Degree Days 3 18  
Month to date heating degree days 581  
Since 1 July heating degree days 1478  
Cooling Degree Days 0 0  
Month to date cooling degree days 4  
Year to date cooling degree days 4  
Growing Degree Days 12 (Base 50)    
Moisture  
Dew Point 53 °F    
Average Humidity 73    
Maximum Humidity 94    
Minimum Humidity 50    
Precipitation  
Precipitation 0.00 in 0.10 in 1.37 in (1968)
Month to date precipitation 3.06  
Year to date precipitation 3.06  
Snow  
Snow 0.00 in - - ()
Month to date snowfall  
Since 1 July snowfall  
Snow Depth -    
Sea Level Pressure  
Sea Level Pressure 29.87 in    
Wind  
Wind Speed 8 mph (South)    
Max Wind Speed 16 mph    
Max Gust Speed 25 mph    
Visibility 10 miles    
Events      
T = Trace of Precipitation, MM = Missing Value Source: NWS Daily Summary

Daily Weather History Graph

Daily Weather History Graph

Search for Another Location

Airport:

Trip Planner

Search our weather history database for the weather conditions in past years. The results will help you decide how hot, cold, wet, or windy it might be!

Date:

Astronomy

Jan. 31, 2014 Rise Set
Actual Time 7:17 AM CST 5:53 PM CST
Civil Twilight 6:51 AM CST 6:19 PM CST
Nautical Twilight 6:22 AM CST 6:49 PM CST
Astronomical Twilight 5:52 AM CST 7:18 PM CST
Moon 7:33 AM CST (1/31) 7:11 PM CST (1/31)
Length of Visible Light 11h 28m
Length of Day
10h 36m
New Moon, 1% of the Moon is Illuminated
Jan 31
New Moon
Feb 6
First Quarter
Feb 14
Full
Feb 22
Last Quarter
Mar 1
New

Hourly Weather History & Observations

Time (CST) Temp. Dew Point Humidity Pressure Visibility Wind Dir Wind Speed Gust Speed Precip Events Conditions
12:15 AM 51.8 °F 46.4 °F 82% 29.92 in 10.0 mi South 8.1 mph - N/A   Overcast
12:35 AM 51.8 °F 46.4 °F 82% 29.92 in 10.0 mi SSE 9.2 mph - N/A   Overcast
12:55 AM 51.8 °F 46.4 °F 82% 29.92 in 10.0 mi SSE 6.9 mph - N/A   Overcast
1:15 AM 51.8 °F 46.4 °F 82% 29.91 in 10.0 mi SSE 4.6 mph - N/A   Overcast
1:35 AM 51.8 °F 46.4 °F 82% 29.91 in 10.0 mi SE 5.8 mph - N/A   Overcast
1:55 AM 51.8 °F 46.4 °F 82% 29.90 in 10.0 mi SSE 5.8 mph - N/A   Overcast
2:15 AM 53.6 °F 48.2 °F 82% 29.90 in 10.0 mi SSE 5.8 mph - N/A   Overcast
2:35 AM 53.6 °F 48.2 °F 82% 29.89 in 10.0 mi SSE 8.1 mph - N/A   Overcast
2:55 AM 53.6 °F 48.2 °F 82% 29.89 in 10.0 mi SSE 6.9 mph - N/A   Overcast
3:15 AM 53.6 °F 48.2 °F 82% 29.89 in 10.0 mi SSE 3.5 mph - N/A   Overcast
3:35 AM 53.6 °F 48.2 °F 82% 29.89 in 10.0 mi Calm Calm - N/A   Overcast
3:55 AM 53.6 °F 48.2 °F 82% 29.89 in 10.0 mi Calm Calm - N/A   Overcast
4:15 AM 53.6 °F 50.0 °F 88% 29.88 in 10.0 mi SSE 4.6 mph - N/A   Overcast
4:35 AM 53.6 °F 50.0 °F 88% 29.87 in 9.0 mi SSE 6.9 mph - N/A   Overcast
4:55 AM 53.6 °F 51.8 °F 94% 29.87 in 8.0 mi South 6.9 mph - N/A   Overcast
5:15 AM 55.4 °F 51.8 °F 88% 29.86 in 10.0 mi SSE 8.1 mph - N/A   Overcast
5:35 AM 55.4 °F 51.8 °F 88% 29.87 in 10.0 mi South 9.2 mph - N/A   Overcast
5:55 AM 55.4 °F 51.8 °F 88% 29.87 in 10.0 mi South 4.6 mph - N/A   Overcast
6:15 AM 55.4 °F 51.8 °F 88% 29.88 in 10.0 mi South 5.8 mph - N/A   Overcast
6:35 AM 55.4 °F 51.8 °F 88% 29.89 in 10.0 mi South 5.8 mph - N/A   Overcast
6:55 AM 55.4 °F 51.8 °F 88% 29.89 in 10.0 mi SSE 3.5 mph - N/A   Overcast
7:15 AM 57.2 °F 53.6 °F 88% 29.90 in 10.0 mi SSE 3.5 mph - N/A   Overcast
7:35 AM 57.2 °F 53.6 °F 88% 29.90 in 10.0 mi SSE 3.5 mph - N/A   Overcast
7:55 AM 57.2 °F 53.6 °F 88% 29.91 in 10.0 mi South 6.9 mph - N/A   Overcast
8:15 AM 59.0 °F 53.6 °F 82% 29.91 in 10.0 mi South 11.5 mph 20.7 mph N/A   Overcast
8:35 AM 59.0 °F 53.6 °F 82% 29.91 in 10.0 mi South 9.2 mph 16.1 mph N/A   Overcast
8:55 AM 60.8 °F 53.6 °F 77% 29.92 in 10.0 mi SSW 10.4 mph 20.7 mph N/A   Overcast
9:15 AM 60.8 °F 53.6 °F 77% 29.92 in 10.0 mi South 10.4 mph 18.4 mph N/A   Overcast
9:35 AM 60.8 °F 53.6 °F 77% 29.92 in 10.0 mi South 11.5 mph 19.6 mph N/A   Overcast
9:55 AM 62.6 °F 53.6 °F 72% 29.93 in 10.0 mi SSW 13.8 mph 24.2 mph N/A   Overcast
10:15 AM 62.6 °F 53.6 °F 72% 29.94 in 10.0 mi SSW 13.8 mph 25.3 mph N/A   Overcast
10:35 AM 62.6 °F 53.6 °F 72% 29.94 in 10.0 mi SSW 11.5 mph 18.4 mph N/A   Overcast
10:55 AM 62.6 °F 53.6 °F 72% 29.94 in 10.0 mi South 16.1 mph 20.7 mph N/A   Overcast
11:15 AM 64.4 °F 53.6 °F 68% 29.93 in 10.0 mi South 13.8 mph 23.0 mph N/A   Overcast
11:35 AM 64.4 °F 53.6 °F 68% 29.93 in 10.0 mi SSW 13.8 mph 19.6 mph N/A   Mostly Cloudy
11:55 AM 66.2 °F 53.6 °F 64% 29.92 in 10.0 mi South 11.5 mph 18.4 mph N/A   Mostly Cloudy
12:15 PM 68.0 °F 53.6 °F 60% 29.90 in 10.0 mi SSW 12.7 mph 21.9 mph N/A   Scattered Clouds
12:35 PM 69.8 °F 53.6 °F 56% 29.89 in 10.0 mi South 16.1 mph 24.2 mph N/A   Partly Cloudy
12:55 PM 69.8 °F 53.6 °F 56% 29.88 in 10.0 mi South 16.1 mph 23.0 mph N/A   Clear
1:15 PM 71.6 °F 53.6 °F 53% 29.86 in 10.0 mi SSW 13.8 mph 23.0 mph N/A   Clear
1:35 PM 71.6 °F 53.6 °F 53% 29.85 in 10.0 mi South 15.0 mph 24.2 mph N/A   Clear
1:55 PM 71.6 °F 53.6 °F 53% 29.84 in 10.0 mi SSW 13.8 mph 21.9 mph N/A   Clear
2:15 PM 71.6 °F 53.6 °F 53% 29.84 in 10.0 mi SSW 16.1 mph 24.2 mph N/A   Clear
2:35 PM 71.6 °F 53.6 °F 53% 29.83 in 10.0 mi SSW 11.5 mph 20.7 mph N/A   Clear
2:55 PM 71.6 °F 53.6 °F 53% 29.83 in 10.0 mi SSW 12.7 mph 20.7 mph N/A   Clear
3:15 PM 73.4 °F 53.6 °F 50% 29.83 in 10.0 mi South 9.2 mph 19.6 mph N/A   Clear
3:35 PM 73.4 °F 53.6 °F 50% 29.83 in 9.0 mi South 11.5 mph 20.7 mph N/A   Clear
3:55 PM 71.6 °F 53.6 °F 53% 29.83 in 10.0 mi SSW 11.5 mph 18.4 mph N/A   Clear
4:15 PM 71.6 °F 53.6 °F 53% 29.83 in 10.0 mi South 10.4 mph - N/A   Clear
4:35 PM 73.4 °F 53.6 °F 50% 29.82 in 10.0 mi South 11.5 mph 20.7 mph N/A   Clear
4:55 PM 71.6 °F 53.6 °F 53% 29.82 in 10.0 mi South 10.4 mph 18.4 mph N/A   Clear
5:15 PM 71.6 °F 55.4 °F 57% 29.82 in 10.0 mi SSE 10.4 mph - N/A   Clear
5:35 PM 69.8 °F 55.4 °F 60% 29.82 in 10.0 mi SSE 9.2 mph - N/A   Clear
5:55 PM 69.8 °F 55.4 °F 60% 29.82 in 10.0 mi SSE 8.1 mph - N/A   Clear
6:15 PM 68.0 °F 55.4 °F 64% 29.83 in 10.0 mi South 9.2 mph 17.3 mph N/A   Clear
6:35 PM 66.2 °F 55.4 °F 68% 29.84 in 10.0 mi South 8.1 mph - N/A   Clear
6:55 PM 66.2 °F 55.4 °F 68% 29.84 in 10.0 mi SSE 5.8 mph - N/A   Clear
7:15 PM 66.2 °F 55.4 °F 68% 29.83 in 10.0 mi SSE 3.5 mph - N/A   Clear
7:35 PM 66.2 °F 55.4 °F 68% 29.83 in 10.0 mi South 4.6 mph - N/A   Clear
7:55 PM 64.4 °F 55.4 °F 73% 29.84 in 10.0 mi SSE 5.8 mph - N/A   Scattered Clouds
8:15 PM 64.4 °F 57.2 °F 77% 29.83 in 10.0 mi SSE 6.9 mph - N/A   Scattered Clouds
8:35 PM 64.4 °F 57.2 °F 77% 29.83 in 10.0 mi SSE 6.9 mph - N/A   Clear
8:55 PM 64.4 °F 57.2 °F 77% 29.83 in 10.0 mi SSE 9.2 mph - N/A   Clear
9:15 PM 64.4 °F 57.2 °F 77% 29.83 in 10.0 mi SSE 5.8 mph - N/A   Clear
9:35 PM 62.6 °F 57.2 °F 82% 29.83 in 10.0 mi SSE 3.5 mph - N/A   Partly Cloudy
9:55 PM 62.6 °F 57.2 °F 82% 29.83 in 10.0 mi South 9.2 mph - N/A   Mostly Cloudy
10:15 PM 62.6 °F 57.2 °F 82% 29.82 in 10.0 mi SSE 5.8 mph - N/A   Scattered Clouds
10:35 PM 62.6 °F 57.2 °F 82% 29.83 in 10.0 mi South 8.1 mph - N/A   Mostly Cloudy
10:55 PM 62.6 °F 57.2 °F 82% 29.82 in 10.0 mi South 6.9 mph - N/A   Mostly Cloudy
11:15 PM 62.6 °F 57.2 °F 82% 29.82 in 10.0 mi South 11.5 mph 19.6 mph N/A   Overcast
11:35 PM 62.6 °F 57.2 °F 82% 29.82 in 10.0 mi South 11.5 mph 19.6 mph N/A   Overcast
11:55 PM 62.6 °F 57.2 °F 82% 29.83 in 10.0 mi South 10.4 mph 19.6 mph N/A   Mostly Cloudy